ENT2ET LGIR-EPKT

Flight info

Callsign ENT2ET
Flight time 2h 26m
Altitude 38000
Route EPALO M749 MIL UM749 ATV DCT TALAS/N0448F400 DCT LONTA UM749 UDVAR DCT PARAK DCT REDSI/N0442F390 DCT MEBAN
Aircraft B738/M-SDGHIJ1RWXY/EB1

Departure

Time 2026-05-07 13:53
Airport Heraklion International Nikos Kazantzakis Airport (LGIR)

Arrival

Time 2026-05-07 16:19
Airport Katowice Wojciech Korfanty International Airport (EPKT)
Time Latitude Longitude Altitude Speed Heading
2026-05-07 13:34 35.33856 25.17675 92 ft 0 kts 317°
2026-05-07 13:47 35.33858 25.17672 90 ft 5 kts 316°
2026-05-07 13:47 35.33911 25.17524 93 ft 30 kts 274°
2026-05-07 13:48 35.33926 25.17306 90 ft 24 kts 275°
2026-05-07 13:48 35.33940 25.17109 89 ft 23 kts 275°
2026-05-07 13:48 35.33953 25.16918 91 ft 22 kts 274°
2026-05-07 13:48 35.33972 25.16757 90 ft 10 kts 292°
2026-05-07 13:49 35.33974 25.16751 91 ft 0 kts 295°
2026-05-07 13:50 35.33975 25.16750 91 ft 2 kts 295°
2026-05-07 13:50 35.34016 25.16675 89 ft 15 kts 307°
2026-05-07 13:50 35.34066 25.16723 89 ft 14 kts 97°
2026-05-07 13:51 35.34062 25.16775 89 ft 0 kts 94°
2026-05-07 13:52 35.34051 25.16936 92 ft 59 kts 95°
2026-05-07 13:52 35.33989 25.17815 92 ft 145 kts 95°
2026-05-07 13:52 35.33894 25.19264 521 ft 181 kts 93°
2026-05-07 13:53 35.33794 25.20828 1615 ft 187 kts 91°
2026-05-07 13:53 35.34174 25.22425 2280 ft 209 kts 51°
2026-05-07 13:53 35.35436 25.23326 2831 ft 220 kts
2026-05-07 13:53 35.36963 25.23162 3527 ft 225 kts 338°
2026-05-07 13:54 35.38200 25.22029 4337 ft 224 kts 302°
2026-05-07 13:54 35.38907 25.20340 5233 ft 224 kts 293°
2026-05-07 13:54 35.39554 25.18591 6088 ft 226 kts 293°
2026-05-07 13:54 35.40200 25.16825 6916 ft 228 kts 296°
2026-05-07 13:55 35.41236 25.15374 7681 ft 233 kts 327°
2026-05-07 13:55 35.42766 25.14454 8016 ft 260 kts 337°
2026-05-07 13:55 35.44521 25.13630 8510 ft 277 kts 339°
2026-05-07 13:55 35.46348 25.12809 9343 ft 281 kts 339°
2026-05-07 13:56 35.48188 25.11979 9816 ft 282 kts 339°
2026-05-07 13:56 35.50039 25.11135 9982 ft 285 kts 339°
2026-05-07 13:56 35.51897 25.10278 10000 ft 285 kts 339°
2026-05-07 13:56 35.53747 25.09417 9999 ft 284 kts 338°
2026-05-07 13:57 35.55595 25.08552 10004 ft 284 kts 338°
2026-05-07 13:57 35.57440 25.07686 10005 ft 284 kts 338°
2026-05-07 13:57 35.59284 25.06819 10010 ft 284 kts 338°
2026-05-07 13:57 35.61132 25.05948 10005 ft 284 kts 338°
2026-05-07 13:58 35.62955 25.05088 10007 ft 284 kts 338°
2026-05-07 13:58 35.64800 25.04216 10010 ft 285 kts 338°
2026-05-07 13:58 35.66650 25.03343 10010 ft 285 kts 338°
2026-05-07 13:58 35.68500 25.02468 10010 ft 285 kts 338°
2026-05-07 13:59 35.70351 25.01593 10009 ft 285 kts 338°
2026-05-07 13:59 35.72219 25.00710 10044 ft 294 kts 338°
2026-05-07 13:59 35.74215 24.99772 10233 ft 320 kts 338°
2026-05-07 13:59 35.76355 24.98768 10633 ft 336 kts 338°
2026-05-07 14:00 35.78558 24.97736 11369 ft 340 kts 338°
2026-05-07 14:00 35.80775 24.96697 12204 ft 342 kts 338°
2026-05-07 14:00 35.83010 24.95648 12987 ft 345 kts 337°
2026-05-07 14:00 35.85263 24.94590 13760 ft 349 kts 337°
2026-05-07 14:01 35.87544 24.93516 14465 ft 352 kts 337°
2026-05-07 14:01 35.89848 24.92432 15127 ft 357 kts 337°
2026-05-07 14:01 35.92182 24.91333 15799 ft 361 kts 336°
2026-05-07 14:01 35.94538 24.90222 16470 ft 364 kts 336°
2026-05-07 14:02 35.96918 24.89100 17141 ft 368 kts 336°
2026-05-07 14:02 35.99322 24.87966 17806 ft 372 kts 336°
2026-05-07 14:02 36.01753 24.86818 18459 ft 376 kts 336°
2026-05-07 14:02 36.04208 24.85658 19058 ft 378 kts 336°
2026-05-07 14:03 36.06665 24.84497 19733 ft 378 kts 336°
2026-05-07 14:03 36.09121 24.83334 20416 ft 378 kts 336°
2026-05-07 14:03 36.11584 24.82166 21050 ft 380 kts 336°
2026-05-07 14:03 36.14056 24.80993 21669 ft 381 kts 335°
2026-05-07 14:04 36.16541 24.79812 22258 ft 383 kts 335°
2026-05-07 14:04 36.19031 24.78627 22853 ft 385 kts 335°
2026-05-07 14:04 36.21534 24.77436 23430 ft 386 kts 335°
2026-05-07 14:04 36.24056 24.76236 23893 ft 390 kts 335°
2026-05-07 14:05 36.26601 24.75023 24298 ft 394 kts 335°
2026-05-07 14:05 36.29162 24.73802 24779 ft 395 kts 335°
2026-05-07 14:05 36.31723 24.72580 25270 ft 395 kts 335°
2026-05-07 14:05 36.34295 24.71353 25734 ft 396 kts 335°
2026-05-07 14:06 36.36874 24.70121 26170 ft 398 kts 335°
2026-05-07 14:06 36.39463 24.68883 26592 ft 400 kts 335°
2026-05-07 14:06 36.42066 24.67638 26995 ft 402 kts 335°
2026-05-07 14:06 36.44682 24.66385 27386 ft 404 kts 335°
2026-05-07 14:07 36.47306 24.65128 27811 ft 405 kts 335°
2026-05-07 14:07 36.49954 24.63858 28094 ft 410 kts 335°
2026-05-07 14:07 36.52623 24.62577 28422 ft 413 kts 335°
2026-05-07 14:07 36.55305 24.61289 28820 ft 414 kts 335°
2026-05-07 14:08 36.57993 24.59998 29223 ft 415 kts 334°
2026-05-07 14:08 36.60689 24.58703 29601 ft 416 kts 334°
2026-05-07 14:08 36.63391 24.57402 29947 ft 418 kts 334°
2026-05-07 14:08 36.66107 24.56094 30267 ft 419 kts 334°
2026-05-07 14:09 36.68831 24.54781 30592 ft 419 kts 334°
2026-05-07 14:09 36.71540 24.53476 31082 ft 415 kts 334°
2026-05-07 14:09 36.74219 24.52183 31555 ft 412 kts 333°
2026-05-07 14:09 36.76841 24.50728 31790 ft 413 kts 330°
2026-05-07 14:10 36.79419 24.49154 32122 ft 412 kts 329°
2026-05-07 14:10 36.81966 24.47564 32634 ft 407 kts 329°
2026-05-07 14:10 36.84480 24.45988 33158 ft 402 kts 329°
2026-05-07 14:10 36.86970 24.44429 33594 ft 399 kts 329°
2026-05-07 14:11 36.89451 24.42880 33972 ft 398 kts 329°
2026-05-07 14:11 36.91921 24.41341 34336 ft 396 kts 329°
2026-05-07 14:11 36.94371 24.39820 34774 ft 391 kts 328°
2026-05-07 14:11 36.96783 24.38325 35308 ft 382 kts 328°
2026-05-07 14:12 36.99126 24.36876 36076 ft 370 kts 327°
2026-05-07 14:12 37.01416 24.35458 36549 ft 364 kts 327°
2026-05-07 14:12 37.03672 24.34057 36935 ft 361 kts 327°
2026-05-07 14:12 37.05915 24.32660 37218 ft 360 kts 327°
2026-05-07 14:13 37.08163 24.31257 37346 ft 362 kts 327°
2026-05-07 14:13 37.11965 24.28882 37518 ft 366 kts 327°
2026-05-07 14:13 37.14219 24.27476 37715 ft 366 kts 327°
2026-05-07 14:14 37.16491 24.26061 38041 ft 363 kts 327°
2026-05-07 14:14 37.21060 24.23209 38126 ft 364 kts 327°
2026-05-07 14:15 37.25576 24.20388 38125 ft 363 kts 327°
2026-05-07 14:15 37.30118 24.17543 38132 ft 366 kts 327°
2026-05-07 14:16 37.34670 24.14688 38129 ft 369 kts 327°
2026-05-07 14:16 37.39315 24.11773 38126 ft 372 kts 327°
2026-05-07 14:17 37.43956 24.08857 38124 ft 374 kts 327°
2026-05-07 14:17 37.48580 24.05950 38119 ft 371 kts 327°
2026-05-07 14:18 37.53166 24.03063 38124 ft 369 kts 326°
2026-05-07 14:18 37.57767 24.00156 38123 ft 372 kts 326°
2026-05-07 14:19 37.62406 23.97223 38123 ft 374 kts 326°
2026-05-07 14:19 37.67067 23.94273 38132 ft 376 kts 326°
2026-05-07 14:20 37.71745 23.91309 38113 ft 376 kts 326°
2026-05-07 14:20 37.76421 23.88342 38120 ft 376 kts 327°
2026-05-07 14:21 37.81099 23.85370 38120 ft 376 kts 326°
2026-05-07 14:21 37.85775 23.82393 38145 ft 376 kts 326°
2026-05-07 14:22 37.90466 23.79443 38129 ft 378 kts 328°
2026-05-07 14:22 37.95261 23.76717 38123 ft 378 kts 329°
2026-05-07 14:23 38.00083 23.74052 38123 ft 378 kts 329°
2026-05-07 14:23 38.04903 23.71359 38108 ft 379 kts 328°
2026-05-07 14:24 38.09724 23.68640 38101 ft 379 kts 328°
2026-05-07 14:24 38.14548 23.65907 38114 ft 380 kts 328°
2026-05-07 14:25 38.19381 23.63164 38116 ft 380 kts 328°
2026-05-07 14:25 38.24215 23.60415 38091 ft 380 kts 328°
2026-05-07 14:26 38.29048 23.57664 38100 ft 381 kts 328°
2026-05-07 14:26 38.33878 23.54912 38099 ft 380 kts 328°
2026-05-07 14:27 38.38699 23.52157 38099 ft 379 kts 328°
2026-05-07 14:27 38.43517 23.49401 38094 ft 379 kts 328°
2026-05-07 14:28 38.48328 23.46645 38118 ft 380 kts 328°
2026-05-07 14:28 38.53167 23.43867 38098 ft 382 kts 328°
2026-05-07 14:29 38.57990 23.41097 38084 ft 384 kts 328°
2026-05-07 14:29 38.62868 23.38290 38097 ft 385 kts 328°
2026-05-07 14:30 38.67756 23.35473 38092 ft 386 kts 328°
2026-05-07 14:30 38.72647 23.32651 38094 ft 386 kts 328°
2026-05-07 14:31 38.77561 23.29810 38103 ft 389 kts 329°
2026-05-07 14:31 38.82508 23.26945 38117 ft 392 kts 329°
2026-05-07 14:32 38.87499 23.24051 38117 ft 395 kts 329°
2026-05-07 14:32 38.92515 23.21124 38093 ft 397 kts 329°
2026-05-07 14:33 38.97566 23.18196 38109 ft 399 kts 329°
2026-05-07 14:33 39.02636 23.15248 38105 ft 401 kts 329°
2026-05-07 14:34 39.07726 23.12281 38106 ft 402 kts 329°
2026-05-07 14:34 39.12818 23.09307 38107 ft 402 kts 329°
2026-05-07 14:35 39.17910 23.06328 38097 ft 402 kts 329°
2026-05-07 14:35 39.22988 23.03353 38107 ft 401 kts 329°
2026-05-07 14:36 39.28059 23.00375 38109 ft 400 kts 329°
2026-05-07 14:36 39.33124 22.97397 38104 ft 400 kts 329°
2026-05-07 14:37 39.38184 22.94416 38112 ft 400 kts 329°
2026-05-07 14:37 39.45793 22.89924 38127 ft 401 kts 329°
2026-05-07 14:38 39.50888 22.86910 38118 ft 403 kts 329°
2026-05-07 14:38 39.56006 22.83878 38106 ft 406 kts 329°
2026-05-07 14:39 39.61161 22.80819 38106 ft 408 kts 329°
2026-05-07 14:39 39.66335 22.77745 38111 ft 410 kts 329°
2026-05-07 14:40 39.71526 22.74655 38105 ft 411 kts 329°
2026-05-07 14:40 39.76725 22.71556 38105 ft 411 kts 329°
2026-05-07 14:41 39.81927 22.68450 38115 ft 412 kts 329°
2026-05-07 14:41 39.87136 22.65333 38113 ft 412 kts 329°
2026-05-07 14:42 39.92351 22.62210 38108 ft 412 kts 329°
2026-05-07 14:42 39.97556 22.59086 38112 ft 412 kts 329°
2026-05-07 14:43 40.02756 22.55959 38116 ft 412 kts 329°
2026-05-07 14:43 40.07960 22.52824 38108 ft 412 kts 329°
2026-05-07 14:44 40.13166 22.49684 38107 ft 412 kts 329°
2026-05-07 14:44 40.18367 22.46540 38114 ft 413 kts 329°
2026-05-07 14:45 40.23588 22.43379 38117 ft 414 kts 329°
2026-05-07 14:45 40.28821 22.40206 38111 ft 415 kts 329°
2026-05-07 14:46 40.34067 22.37020 38120 ft 416 kts 329°
2026-05-07 14:46 40.39317 22.33825 38101 ft 416 kts 329°
2026-05-07 14:47 40.44579 22.30617 38128 ft 418 kts 330°
2026-05-07 14:47 40.49852 22.27397 38124 ft 419 kts 330°
2026-05-07 14:48 40.55113 22.24179 38124 ft 419 kts 330°
2026-05-07 14:48 40.60402 22.20939 38121 ft 420 kts 330°
2026-05-07 14:49 40.65696 22.17690 38132 ft 420 kts 329°
2026-05-07 14:49 40.70982 22.14440 38119 ft 419 kts 329°
2026-05-07 14:50 40.76265 22.11187 38131 ft 418 kts 329°
2026-05-07 14:50 40.81527 22.07940 38123 ft 417 kts 329°
2026-05-07 14:51 40.86774 22.04696 38145 ft 416 kts 329°
2026-05-07 14:51 40.92017 22.01448 38139 ft 416 kts 329°
2026-05-07 14:52 40.97255 21.98199 38128 ft 416 kts 329°
2026-05-07 14:52 41.02490 21.94945 38127 ft 416 kts 329°
2026-05-07 14:53 41.07734 21.91691 38122 ft 417 kts 331°
2026-05-07 14:53 41.13183 21.88940 38137 ft 421 kts 335°
2026-05-07 14:54 41.18742 21.86396 38130 ft 424 kts 335°
2026-05-07 14:54 41.24320 21.83814 38130 ft 425 kts 335°
2026-05-07 14:55 41.29890 21.81187 38105 ft 425 kts 335°
2026-05-07 14:55 41.35474 21.78594 38131 ft 426 kts 334°
2026-05-07 14:56 41.41045 21.75904 38126 ft 426 kts 334°
2026-05-07 14:56 41.46628 21.73214 38124 ft 427 kts 334°
2026-05-07 14:57 41.51274 21.70984 38125 ft 427 kts 335°
2026-05-07 14:57 41.56880 21.68296 38125 ft 428 kts 335°
2026-05-07 14:58 41.62484 21.65606 38115 ft 428 kts 335°
2026-05-07 14:58 41.68097 21.62906 38123 ft 429 kts 335°
2026-05-07 14:59 41.73715 21.60210 38110 ft 428 kts 335°
2026-05-07 14:59 41.79293 21.57511 38122 ft 427 kts 334°
2026-05-07 15:00 41.84885 21.54799 38099 ft 427 kts 335°
2026-05-07 15:00 41.90472 21.52090 38120 ft 427 kts 335°
2026-05-07 15:01 41.96075 21.49377 38119 ft 429 kts 334°
2026-05-07 15:01 42.01697 21.46634 38115 ft 431 kts 335°
2026-05-07 15:02 42.07348 21.43879 38118 ft 433 kts 335°
2026-05-07 15:02 42.13023 21.41108 38118 ft 435 kts 335°
2026-05-07 15:03 42.18779 21.38520 38127 ft 439 kts 339°
2026-05-07 15:03 42.24694 21.36370 38110 ft 441 kts 340°
2026-05-07 15:04 42.30622 21.34266 38104 ft 441 kts 340°
2026-05-07 15:04 42.36542 21.32117 38100 ft 440 kts 340°
2026-05-07 15:05 42.42436 21.29948 38115 ft 439 kts 340°
2026-05-07 15:05 42.48327 21.27769 38105 ft 438 kts 340°
2026-05-07 15:06 42.54205 21.25590 38099 ft 438 kts 340°
2026-05-07 15:06 42.60075 21.23411 38099 ft 437 kts 340°
2026-05-07 15:07 42.65945 21.21228 38107 ft 437 kts 340°
2026-05-07 15:07 42.71814 21.19041 38098 ft 438 kts 340°
2026-05-07 15:08 42.77686 21.16848 38093 ft 437 kts 340°
2026-05-07 15:08 42.83550 21.14655 38089 ft 437 kts 340°
2026-05-07 15:09 42.89409 21.12459 38084 ft 437 kts 339°
2026-05-07 15:09 42.95274 21.10255 38070 ft 438 kts 340°
2026-05-07 15:10 43.01145 21.08046 38074 ft 437 kts 339°
2026-05-07 15:10 43.07010 21.05835 38071 ft 437 kts 340°
2026-05-07 15:11 43.12885 21.03655 38078 ft 439 kts 341°
2026-05-07 15:11 43.18864 21.01833 38055 ft 441 kts 343°
2026-05-07 15:12 43.24876 21.00126 38073 ft 442 kts 343°
2026-05-07 15:12 43.30903 20.98386 38075 ft 443 kts 343°
2026-05-07 15:13 43.36946 20.96605 38044 ft 444 kts 343°
2026-05-07 15:13 43.42945 20.94822 38050 ft 444 kts 343°
2026-05-07 15:14 43.49027 20.93010 38044 ft 444 kts 343°
2026-05-07 15:14 43.55072 20.91204 38039 ft 445 kts 343°
2026-05-07 15:15 43.61124 20.89393 38043 ft 445 kts 343°
2026-05-07 15:15 43.67182 20.87575 38047 ft 446 kts 343°
2026-05-07 15:16 43.73248 20.85753 38032 ft 447 kts 343°
2026-05-07 15:16 43.79285 20.83935 38026 ft 447 kts 343°
2026-05-07 15:17 43.85365 20.82101 38037 ft 448 kts 343°
2026-05-07 15:17 43.91460 20.80258 38032 ft 449 kts 343°
2026-05-07 15:18 43.97566 20.78409 38026 ft 449 kts 343°
2026-05-07 15:18 44.03678 20.76553 38025 ft 449 kts 343°
2026-05-07 15:19 44.09795 20.74692 38031 ft 450 kts 343°
2026-05-07 15:19 44.15915 20.72826 38037 ft 450 kts 343°
2026-05-07 15:20 44.22036 20.70956 38025 ft 450 kts 343°
2026-05-07 15:20 44.28156 20.69082 38032 ft 450 kts 342°
2026-05-07 15:21 44.34274 20.67205 38038 ft 450 kts 342°
2026-05-07 15:21 44.40387 20.65326 38034 ft 450 kts 342°
2026-05-07 15:22 44.46493 20.63444 38029 ft 449 kts 343°
2026-05-07 15:22 44.52596 20.61559 38029 ft 449 kts 343°
2026-05-07 15:23 44.58704 20.59669 38020 ft 449 kts 343°
2026-05-07 15:23 44.64806 20.57776 38020 ft 449 kts 343°
2026-05-07 15:24 44.70899 20.55883 38020 ft 449 kts 343°
2026-05-07 15:24 44.76997 20.53983 38020 ft 449 kts 343°
2026-05-07 15:25 44.83067 20.52088 38029 ft 450 kts 343°
2026-05-07 15:25 44.89186 20.50173 38016 ft 451 kts 343°
2026-05-07 15:26 44.95314 20.48252 38021 ft 451 kts 343°
2026-05-07 15:26 45.01444 20.46326 38012 ft 452 kts 343°
2026-05-07 15:27 45.07581 20.44394 38013 ft 452 kts 343°
2026-05-07 15:27 45.13719 20.42457 38025 ft 452 kts 342°
2026-05-07 15:28 45.19866 20.40513 38025 ft 453 kts 342°
2026-05-07 15:28 45.26016 20.38563 38015 ft 453 kts 342°
2026-05-07 15:29 45.32167 20.36609 38023 ft 453 kts 342°
2026-05-07 15:29 45.38328 20.34647 38012 ft 454 kts 342°
2026-05-07 15:30 45.44485 20.32683 38013 ft 453 kts 342°
2026-05-07 15:30 45.50636 20.30716 38008 ft 453 kts 342°
2026-05-07 15:31 45.56782 20.28745 38037 ft 453 kts 342°
2026-05-07 15:31 45.62932 20.26769 38018 ft 453 kts 342°
2026-05-07 15:32 45.69085 20.24788 38008 ft 453 kts 342°
2026-05-07 15:32 45.75236 20.22803 38008 ft 453 kts 342°
2026-05-07 15:33 45.81393 20.20811 38010 ft 454 kts 342°
2026-05-07 15:33 45.87551 20.18815 38011 ft 454 kts 342°
2026-05-07 15:34 45.93716 20.16811 38008 ft 454 kts 342°
2026-05-07 15:34 45.99886 20.14802 38024 ft 455 kts 342°
2026-05-07 15:35 46.06068 20.12784 38010 ft 456 kts 342°
2026-05-07 15:35 46.12261 20.10758 38016 ft 456 kts 342°
2026-05-07 15:36 46.18497 20.08926 38009 ft 460 kts 348°
2026-05-07 15:36 46.24884 20.07996 38016 ft 463 kts 351°
2026-05-07 15:37 46.31303 20.07227 38013 ft 463 kts 351°
2026-05-07 15:37 46.37719 20.06398 38016 ft 463 kts 350°
2026-05-07 15:38 46.44132 20.05511 38027 ft 463 kts 350°
2026-05-07 15:38 46.50549 20.04602 38015 ft 463 kts 350°
2026-05-07 15:39 46.56964 20.03689 38024 ft 464 kts 350°
2026-05-07 15:39 46.63348 20.02780 38016 ft 464 kts 350°
2026-05-07 15:40 46.69771 20.01865 38025 ft 464 kts 350°
2026-05-07 15:40 46.76200 20.00948 38021 ft 464 kts 350°
2026-05-07 15:41 46.82630 20.00028 38020 ft 464 kts 350°
2026-05-07 15:41 46.88019 19.99255 38024 ft 464 kts 350°
2026-05-07 15:42 46.95499 19.98179 38024 ft 465 kts 350°
2026-05-07 15:42 47.01936 19.97247 38019 ft 465 kts 349°
2026-05-07 15:43 47.07330 19.96401 38021 ft 465 kts 349°
2026-05-07 15:43 47.13760 19.95354 38018 ft 465 kts 349°
2026-05-07 15:44 47.20189 19.94310 38018 ft 465 kts 349°
2026-05-07 15:44 47.26586 19.93278 38015 ft 465 kts 349°
2026-05-07 15:45 47.33018 19.92242 38016 ft 465 kts 349°
2026-05-07 15:45 47.39459 19.91202 38035 ft 466 kts 349°
2026-05-07 15:46 47.49128 19.89636 38005 ft 466 kts 349°
2026-05-07 15:47 47.55578 19.88588 38002 ft 466 kts 349°
2026-05-07 15:47 47.62025 19.87538 38007 ft 467 kts 349°
2026-05-07 15:48 47.68488 19.86483 38009 ft 467 kts 349°
2026-05-07 15:48 47.74904 19.85432 38000 ft 467 kts 349°
2026-05-07 15:49 47.81367 19.84371 38007 ft 468 kts 349°
2026-05-07 15:49 47.87837 19.83307 38009 ft 468 kts 349°
2026-05-07 15:50 47.94328 19.82236 37991 ft 470 kts 349°
2026-05-07 15:50 48.00823 19.81162 38012 ft 469 kts 349°
2026-05-07 15:51 48.07314 19.80086 38002 ft 470 kts 349°
2026-05-07 15:51 48.13820 19.79004 37838 ft 473 kts 349°
2026-05-07 15:51 48.17106 19.78455 37308 ft 475 kts 349°
2026-05-07 15:52 48.20386 19.77909 36745 ft 473 kts 349°
2026-05-07 15:52 48.23655 19.77365 36168 ft 472 kts 349°
2026-05-07 15:52 48.26912 19.76822 35665 ft 470 kts 349°
2026-05-07 15:52 48.30145 19.76283 35232 ft 466 kts 349°
2026-05-07 15:53 48.33355 19.75747 34798 ft 462 kts 348°
2026-05-07 15:53 48.36539 19.75214 34371 ft 459 kts 348°
2026-05-07 15:53 48.39707 19.74682 33956 ft 457 kts 348°
2026-05-07 15:53 48.42859 19.74151 33438 ft 455 kts 348°
2026-05-07 15:54 48.45998 19.73622 32990 ft 452 kts 348°
2026-05-07 15:54 48.49113 19.73097 32559 ft 449 kts 348°
2026-05-07 15:54 48.52203 19.72575 32133 ft 445 kts 348°
2026-05-07 15:54 48.55276 19.72056 31721 ft 442 kts 348°
2026-05-07 15:55 48.58321 19.71541 31308 ft 439 kts 348°
2026-05-07 15:55 48.61348 19.71026 30903 ft 436 kts 348°
2026-05-07 15:55 48.64349 19.70517 30490 ft 433 kts 348°
2026-05-07 15:55 48.67332 19.70011 30099 ft 429 kts 348°
2026-05-07 15:56 48.70290 19.69508 29621 ft 426 kts 348°
2026-05-07 15:56 48.73218 19.69010 29181 ft 422 kts 348°
2026-05-07 15:56 48.76120 19.68515 28773 ft 418 kts 349°
2026-05-07 15:56 48.78998 19.68024 28326 ft 415 kts 349°
2026-05-07 15:57 48.81853 19.67536 27936 ft 411 kts 349°
2026-05-07 15:57 48.84681 19.67052 27518 ft 408 kts 349°
2026-05-07 15:57 48.87489 19.66570 27116 ft 405 kts 349°
2026-05-07 15:57 48.90280 19.66091 26712 ft 403 kts 349°
2026-05-07 15:58 48.93059 19.65615 26318 ft 401 kts 349°
2026-05-07 15:58 48.95828 19.65140 25915 ft 399 kts 350°
2026-05-07 15:58 48.98581 19.64663 25516 ft 398 kts 350°
2026-05-07 15:58 49.01327 19.64188 25106 ft 396 kts 350°
2026-05-07 15:59 49.04025 19.63719 24708 ft 394 kts 350°
2026-05-07 15:59 49.06750 19.63248 24306 ft 395 kts 350°
2026-05-07 15:59 49.09477 19.62777 23907 ft 394 kts 350°
2026-05-07 15:59 49.12199 19.62307 23467 ft 393 kts 351°
2026-05-07 16:00 49.14905 19.61840 23018 ft 391 kts 351°
2026-05-07 16:00 49.17605 19.61373 22598 ft 389 kts 351°
2026-05-07 16:00 49.20287 19.60908 22189 ft 387 kts 351°
2026-05-07 16:00 49.22959 19.60444 21776 ft 385 kts 351°
2026-05-07 16:01 49.25616 19.59982 21380 ft 383 kts 351°
2026-05-07 16:01 49.28251 19.59523 20979 ft 380 kts 351°
2026-05-07 16:01 49.30873 19.59066 20598 ft 378 kts 351°
2026-05-07 16:01 49.33478 19.58611 20204 ft 376 kts 351°
2026-05-07 16:02 49.36073 19.58158 19819 ft 374 kts 351°
2026-05-07 16:02 49.38654 19.57707 19417 ft 373 kts 351°
2026-05-07 16:02 49.41222 19.57257 19039 ft 371 kts 351°
2026-05-07 16:02 49.43785 19.56808 18654 ft 370 kts 351°
2026-05-07 16:03 49.46340 19.56359 18270 ft 369 kts 352°
2026-05-07 16:03 49.48892 19.55911 17827 ft 368 kts 352°
2026-05-07 16:03 49.51425 19.55465 17414 ft 366 kts 352°
2026-05-07 16:03 49.53946 19.55022 17037 ft 363 kts 352°
2026-05-07 16:04 49.56444 19.54582 16661 ft 360 kts 352°
2026-05-07 16:04 49.58926 19.54145 16249 ft 358 kts 352°
2026-05-07 16:04 49.61385 19.53711 15904 ft 354 kts 352°
2026-05-07 16:04 49.63820 19.53281 15542 ft 351 kts 352°
2026-05-07 16:05 49.66237 19.52853 15191 ft 349 kts 352°
2026-05-07 16:05 49.68646 19.52426 14812 ft 347 kts 352°
2026-05-07 16:05 49.71038 19.52001 14456 ft 345 kts 352°
2026-05-07 16:05 49.73415 19.51579 14095 ft 343 kts 352°
2026-05-07 16:06 49.75777 19.51160 13743 ft 341 kts 352°
2026-05-07 16:06 49.78127 19.50743 13324 ft 339 kts 352°
2026-05-07 16:06 49.80460 19.50328 12945 ft 336 kts 352°
2026-05-07 16:06 49.82768 19.49918 12604 ft 332 kts 352°
2026-05-07 16:07 49.85047 19.49512 12296 ft 327 kts 352°
2026-05-07 16:07 49.87296 19.49111 11967 ft 324 kts 352°
2026-05-07 16:07 49.89529 19.48713 11634 ft 321 kts 351°
2026-05-07 16:07 49.91738 19.48318 11300 ft 319 kts 351°
2026-05-07 16:08 49.93934 19.47925 10968 ft 316 kts 351°
2026-05-07 16:08 49.96110 19.47535 10654 ft 314 kts 351°
2026-05-07 16:08 49.98276 19.47147 10329 ft 312 kts 351°
2026-05-07 16:08 50.00420 19.46762 10112 ft 306 kts 350°
2026-05-07 16:09 50.02504 19.46390 9972 ft 298 kts 350°
2026-05-07 16:09 50.04555 19.46022 9660 ft 296 kts 350°
2026-05-07 16:09 50.06592 19.45655 9355 ft 294 kts 350°
2026-05-07 16:09 50.08612 19.45290 9050 ft 291 kts 350°
2026-05-07 16:10 50.10620 19.44929 8753 ft 289 kts 350°
2026-05-07 16:10 50.12608 19.44569 8470 ft 287 kts 350°
2026-05-07 16:10 50.14582 19.44212 8184 ft 285 kts 350°
2026-05-07 16:10 50.16543 19.43858 7903 ft 283 kts 350°
2026-05-07 16:11 50.18491 19.43505 7623 ft 281 kts 350°
2026-05-07 16:11 50.20420 19.43157 7337 ft 276 kts 350°
2026-05-07 16:11 50.22292 19.42819 7059 ft 267 kts 350°
2026-05-07 16:11 50.24104 19.42492 6858 ft 259 kts 350°
2026-05-07 16:12 50.25868 19.42172 6614 ft 258 kts 350°
2026-05-07 16:12 50.27643 19.41849 6363 ft 256 kts 350°
2026-05-07 16:12 50.29430 19.41523 6092 ft 254 kts 350°
2026-05-07 16:12 50.31184 19.41204 5816 ft 254 kts 350°
2026-05-07 16:13 50.32932 19.40885 5540 ft 252 kts 350°
2026-05-07 16:13 50.34672 19.40568 5280 ft 251 kts 349°
2026-05-07 16:13 50.36388 19.40256 5129 ft 246 kts 350°
2026-05-07 16:13 50.38064 19.39950 5014 ft 245 kts 350°
2026-05-07 16:14 50.39767 19.39638 4913 ft 248 kts 350°
2026-05-07 16:14 50.41497 19.39321 4808 ft 251 kts 351°
2026-05-07 16:14 50.43218 19.39007 4688 ft 245 kts 350°
2026-05-07 16:14 50.44875 19.38707 4531 ft 236 kts 351°
2026-05-07 16:15 50.46391 19.37984 4356 ft 222 kts 320°
2026-05-07 16:15 50.47246 19.36063 4232 ft 217 kts 284°
2026-05-07 16:15 50.47502 19.33727 3955 ft 217 kts 275°
2026-05-07 16:15 50.47581 19.31383 3670 ft 214 kts 271°
2026-05-07 16:16 50.47583 19.29066 3389 ft 211 kts 270°
2026-05-07 16:16 50.47578 19.26797 3118 ft 203 kts 270°
2026-05-07 16:16 50.47578 19.24660 2867 ft 188 kts 271°
2026-05-07 16:16 50.47579 19.22685 2597 ft 173 kts 271°
2026-05-07 16:17 50.47580 19.20872 2376 ft 161 kts 273°
2026-05-07 16:17 50.47583 19.19177 2183 ft 150 kts 272°
2026-05-07 16:17 50.47583 19.17551 1984 ft 149 kts 273°
2026-05-07 16:17 50.47593 19.15928 1771 ft 151 kts 273°
2026-05-07 16:18 50.47589 19.14279 1582 ft 153 kts 271°
2026-05-07 16:18 50.47582 19.12585 1392 ft 156 kts 274°
2026-05-07 16:18 50.47574 19.10905 1135 ft 152 kts 275°
2026-05-07 16:18 50.47591 19.09271 1003 ft 145 kts 274°
2026-05-07 16:19 50.47598 19.07923 996 ft 83 kts 270°
2026-05-07 16:19 50.47598 19.07279 1001 ft 36 kts 262°
2026-05-07 16:19 50.47531 19.06975 998 ft 28 kts 243°
2026-05-07 16:19 50.47443 19.06731 997 ft 23 kts 240°
2026-05-07 16:20 50.47319 19.06625 997 ft 18 kts 180°
2026-05-07 16:20 50.47237 19.06724 997 ft 17 kts 91°
2026-05-07 16:20 50.47237 19.06899 997 ft 13 kts 89°
2026-05-07 16:20 50.47203 19.06952 997 ft 6 kts 178°
2026-05-07 16:21 50.47165 19.06952 1000 ft 4 kts 180°
2026-05-07 16:21 50.47161 19.06952 999 ft 0 kts 180°
2026-05-07 16:21 50.47162 19.06952 999 ft 0 kts 180°